Location: NJAA Observatory
(40.6819°N, 74.8979°W)
Time: 21:48:06
(UTC-04:00)

Cosmos 2237 Rocket - Visible Passes

Search period start: 27 March 2015 00:00
Search period end: 06 April 2015 00:00
Orbit: 833 x 852 km, 71.0° (Epoch: 26 March)

Date Brightness Start Highest point End Pass type
(mag) Time Alt. Az. Time Alt. Az. Time Alt. Az.
27 Mar 3.8 20:00:10 10° N 20:03:59 19° NE 20:07:26 12° E visible
27 Mar 2.2 21:43:02 10° NNW 21:48:45 73° WSW 21:49:18 67° SSW visible
28 Mar 3.8 19:45:27 10° N 19:49:09 18° NE 19:53:02 10° E visible
28 Mar 2.2 21:28:16 10° NNW 21:33:58 76° WSW 21:35:25 51° S visible
29 Mar 2.2 21:13:27 10° NNW 21:19:11 80° WSW 21:21:37 36° SSE visible
30 Mar 2.2 20:58:40 10° NNW 21:04:24 83° WSW 21:07:54 24° SSE visible
30 Mar 4.9 22:47:04 10° W 22:47:42 10° W 22:47:54 10° W visible
31 Mar 2.2 20:43:52 10° NNW 20:49:36 87° WSW 20:54:17 16° SSE visible
31 Mar 4.9 22:31:24 10° W 22:32:57 11° W 22:34:03 10° WSW visible
01 Apr 2.2 20:29:05 10° NNW 20:34:49 89° ENE 20:40:31 10° SSE visible
01 Apr 4.9 22:16:11 10° WNW 22:18:11 11° W 22:19:47 10° WSW visible
02 Apr 2.2 20:14:18 10° NNW 20:20:02 85° ENE 20:25:43 10° SSE visible
02 Apr 4.9 22:01:03 10° WNW 22:03:25 12° W 22:05:25 10° WSW visible
03 Apr 2.2 19:59:30 10° NNW 20:05:14 82° ENE 20:10:56 10° SSE visible
03 Apr 4.9 21:46:00 10° WNW 21:48:39 13° W 21:50:57 10° WSW visible
04 Apr 4.9 21:30:59 10° WNW 21:33:54 14° W 21:36:28 10° SW visible
05 Apr 4.9 21:15:59 10° WNW 21:19:08 15° W 21:21:57 10° SW visible
